DECAYED

DMSP 5D-2 F13 DEB, 42330 (Decayed)

Orbit data source: Space-Track

DMSP 5D-2 F13 DEB, 42330 was space debris in SSO originally from a launch on Fri, 24 Mar 1995 UTC launched from the Air Force Western Test Range (AFWTR). Debris objects in space refer to the collection of defunct objects orbiting the Earth. Examples of debris include non-operational satellites, rocket bodies, and fragments generated from explosions, collisions, or faulty payload assembly.

Not visible in the next 10 days
Identifier
42330, 1995-015JY
Orbit
Decayed
Country
Flag of USUS
Related business
Manufacturer
Unknown
Mission
Decayed spacecraft
Bus & Motor
Unknown
Mass
Unknown
Launch date (UTC)
1995-03-24 (31 years ago)
Launch vehicle
Unknown
Launch site
Air Force Western Test Range (AFWTR)
Object type
Payload
Rocket body
Debris
Shape & HBR
Unknown shape, 0.1 m
Radar Cross Section
Small (<0.1 m²)

Expand to show TLE details & history
Last TLE update: 1 year ago

TLE from 1 year ago
0 DMSP 5D-2 F13 DEB
1 42330U 95015JY  25097.45901210  .00291835  00000-0  16847-1 0  9992
2 42330  98.6664 171.2495 0013992 245.2681 114.7090 15.10818496497593
Epoch: 2025-04-07T11:00Z
TLE epoch observation values (Epoch: 2025-04-07T11:00:58.645Z)
Latitude
0.00004°
Longitude
170.031°
Altitude
540.796 km
Speed
7.59 km/s
True Right ascension
11h 24m 59s
True Declination
0° 00' 00"
Sunlit
Object was in full shadow at epoch
Visualization orbit readout
Latitude
Unknown
Longitude
Unknown
Altitude
Unknown
Speed
Unknown
Apparent Right ascension
Unknown
Apparent Declination
Unknown
Sunlit
N/A
Visualization observer readout
Local Sidereal Time
03:14:20
Azimuth
Unknown
Elevation
Unknown
Doppler factor
Unknown
Orbital elements
Apogee altitude
540.406 km
Perigee altitude
521.072 km
Semi-major axis
6,908.876 km
Eccentricity
0.0014
Inclination
98.6664°
RAAN
171.2495°
Arg. of periapsis
245.2681°
True anomaly
114.85455°
Mean anomaly
114.709°
Eccentric anomaly
114.78179°
Mean motion
3.77948 °/min
Orbital period
95.25 mins
BSTAR
0.016847

Documentation

Showing up to 5 results
|